Weather History for Springfield, OH

Change the Weather History Date:

Saturday, September 7, 2013

  Actual Average (KDAY) Record (KDAY)
Temperature  
Mean Temperature 67 °F 69 °F  
Max Temperature 84 °F 79 °F 99 °F (1899)
Min Temperature 50 °F 58 °F 42 °F (1962)
Degree Days  
Heating Degree Days 0 1  
Month to date heating degree days 7  
Since 1 July heating degree days 9  
Cooling Degree Days 2 5  
Month to date cooling degree days 38  
Year to date cooling degree days 820  
Growing Degree Days 17 (Base 50)    
Moisture  
Dew Point 58 °F    
Average Humidity 71    
Maximum Humidity 93    
Minimum Humidity 49    
Precipitation  
Precipitation 0.00 in 0.12 in 1.24 in (2012)
Month to date precipitation 0.80  
Year to date precipitation 29.11  
Snow  
Snow 0.00 in 0.00 in 0.00 in ()
Month to date snowfall 0.0  
Since 1 July snowfall 0.0  
Since 1 September snowfall 0.0  
Snow Depth -    
Sea Level Pressure  
Sea Level Pressure 30.06 in    
Wind  
Wind Speed 4 mph (SSW)    
Max Wind Speed 9 mph    
Max Gust Speed -    
Visibility 8 miles    
Events      
T = Trace of Precipitation, MM = Missing Value Source: NWS Daily Summary

Daily Weather History Graph

Daily Weather History Graph

Search for Another Location

Airport:

Trip Planner

Search our weather history database for the weather conditions in past years. The results will help you decide how hot, cold, wet, or windy it might be!

Date:

Astronomy

Sep. 07, 2013 Rise Set
Actual Time 7:09 AM EDT 7:56 PM EDT
Civil Twilight 6:41 AM EDT 8:24 PM EDT
Nautical Twilight 6:09 AM EDT 8:56 PM EDT
Astronomical Twilight 5:35 AM EDT 9:29 PM EDT
Moon 9:22 AM EDT (9/7) 8:54 PM EDT (9/7)
Length of Visible Light 13h 42m
Length of Day
12h 47m
Waxing Crescent, 5% of the Moon is Illuminated
Sep 7
Waxing Crescent
Sep 12
First Quarter
Sep 19
Full
Sep 26
Last Quarter
Oct 4
New

Hourly Weather History & Observations

Time (EDT) Temp. Heat Index Dew Point Humidity Pressure Visibility Wind Dir Wind Speed Gust Speed Precip Events Conditions
12:56 AM 54.0 °F - 47.8 °F 80% 30.13 in 9.0 mi South 5.8 mph - N/A   Clear
1:56 AM 54.0 °F - 48.9 °F 83% 30.12 in 9.0 mi South 3.5 mph - N/A   Clear
2:56 AM 52.0 °F - 47.8 °F 86% 30.12 in 9.0 mi Calm Calm - N/A   Clear
3:56 AM 50.9 °F - 47.8 °F 89% 30.12 in 9.0 mi SSE 3.5 mph - N/A   Clear
4:56 AM 50.0 °F - 46.9 °F 89% 30.11 in 10.0 mi Calm Calm - N/A   Clear
5:56 AM 50.0 °F - 47.8 °F 92% 30.12 in 9.0 mi Calm Calm - N/A   Clear
6:56 AM 50.0 °F - 46.9 °F 89% 30.12 in 10.0 mi Calm Calm - N/A   Clear
7:56 AM 52.0 °F - 50.0 °F 93% 30.12 in 8.0 mi Calm Calm - N/A   Clear
8:56 AM 59.9 °F - 54.0 °F 81% 30.11 in 8.0 mi South 3.5 mph - N/A   Clear
9:56 AM 68.9 °F - 55.9 °F 63% 30.10 in 7.0 mi SSW 6.9 mph - N/A   Clear
10:56 AM 73.9 °F - 57.9 °F 57% 30.10 in 9.0 mi SW 6.9 mph - N/A   Mostly Cloudy
11:56 AM 77.0 °F - 61.0 °F 58% 30.09 in 8.0 mi SSW 5.8 mph - N/A   Scattered Clouds
12:56 PM 81.9 °F 83.2 °F 63.9 °F 54% 30.07 in 8.0 mi SW 6.9 mph - N/A   Partly Cloudy
1:56 PM 82.9 °F 84.6 °F 64.9 °F 54% 30.05 in 8.0 mi SW 6.9 mph - N/A   Scattered Clouds
2:56 PM 84.9 °F 86.6 °F 64.9 °F 51% 30.02 in 7.0 mi SSW 9.2 mph - N/A   Partly Cloudy
3:56 PM 84.9 °F 86.1 °F 63.9 °F 49% 30.00 in 7.0 mi SW 6.9 mph - N/A   Clear
4:56 PM 84.9 °F 86.1 °F 63.9 °F 49% 29.99 in 7.0 mi SSW 5.8 mph - N/A   Partly Cloudy
5:56 PM 83.8 °F 85.1 °F 63.9 °F 51% 29.99 in 8.0 mi SSW 5.8 mph - N/A   Partly Cloudy
6:56 PM 79.9 °F - 64.9 °F 60% 29.99 in 7.0 mi SSW 4.6 mph - N/A   Partly Cloudy
7:56 PM 74.8 °F - 64.9 °F 71% 29.98 in 7.0 mi SSW 4.6 mph - N/A   Partly Cloudy
8:56 PM 72.0 °F - 63.9 °F 76% 29.99 in 8.0 mi SSW 4.6 mph - N/A   Clear
9:56 PM 70.0 °F - 63.9 °F 81% 29.98 in 8.0 mi SSW 5.8 mph - N/A   Clear
10:56 PM 72.0 °F - 64.9 °F 78% 29.97 in 8.0 mi South 5.8 mph - N/A   Partly Cloudy
11:56 PM 70.9 °F - 64.9 °F 81% 29.98 in 8.0 mi South 3.5 mph - N/A   Clear